This is the latest recevied weather packets stored in our database for station/object VE3CGR-6. If no packets are shown the sender has not sent any weather packets the latest 10 day(s).
| Time | Temp. | Humidity | Pressure | Rain* | Wind** | Luminosity | Snow |
|---|---|---|---|---|---|---|---|
| 1788462618 | 27.78° C | 67% | 1014.1 hPa | 0 mm | - | - | - |
| 1788462018 | 27.78° C | 65% | 1014.1 hPa | 0 mm | - | - | - |
| 1788461418 | 27.78° C | 67% | 1014.2 hPa | 0 mm | - | - | - |
| 1788460818 | 28.33° C | 65% | 1014.2 hPa | 0 mm | - | - | - |
| 1788460218 | 27.78° C | 65% | 1014.1 hPa | 0 mm | - | - | - |
| 1788459618 | 27.78° C | 65% | 1014.1 hPa | 0 mm | - | - | - |
| 1788459019 | 27.78° C | 64% | 1014 hPa | 0 mm | - | - | - |
| 1788458418 | 27.78° C | 66% | 1014.1 hPa | 0 mm | - | - | - |
| 1788457818 | 27.22° C | 66% | 1014.2 hPa | 0 mm | - | - | - |
| 1788457218 | 27.78° C | 66% | 1014.4 hPa | 0 mm | - | - | - |
| 1788456619 | 27.78° C | 65% | 1014.4 hPa | 0 mm | - | - | - |
| 1788456018 | 27.22° C | 67% | 1014.6 hPa | 0 mm | - | - | - |
| 1788455418 | 26.67° C | 67% | 1014.5 hPa | 0 mm | - | - | - |
| 1788454817 | 26.11° C | 67% | 1014.5 hPa | 0 mm | - | - | - |
| 1788454217 | 26.11° C | 67% | 1014.2 hPa | 0 mm | - | - | - |
| 1788453617 | 26.11° C | 67% | 1014.5 hPa | 0 mm | - | - | - |
| 1788453018 | 26.11° C | 66% | 1014.5 hPa | 0 mm | - | - | - |
| 1788452417 | 25.56° C | 66% | 1014.5 hPa | 0 mm | - | - | - |
| 1788451818 | 25.56° C | 68% | 1014.5 hPa | 0 mm | - | - | - |
| 1788451218 | 25.56° C | 67% | 1014.6 hPa | 0 mm | - | - | - |
| 1788450617 | 25.56° C | 70% | 1014.6 hPa | 0 mm | - | - | - |
| 1788450017 | 25° C | 68% | 1014.9 hPa | 0 mm | - | - | - |
| 1788449417 | 25° C | 69% | 1014.8 hPa | 0 mm | - | - | - |
| 1788448817 | 25° C | 69% | 1014.9 hPa | 0 mm | - | - | - |
| 1788448218 | 24.44° C | 69% | 1014.8 hPa | 0 mm | - | - | - |
* Rain latest hour (hover to see other rain measurements)
** Current wind speed in m/s (hover to see current wind gust speed)